Weather Roundup
Issued by NWS Chicago, IL

Home | Current Version | Previous Version | Graphics & Text | Print | Product List | Glossary On
Versions: 1 2 3 4 5 6 7 8 9 10 11 12 13 14 15 16 17 18 19 20 21 22 23 24 25 26 27 28 29 30 31 32 33 34 35 36 37 38 39 40 41 42 43 44 45 46 47 48 49 50
000
NZUS59 KLOT 301808
HRRLOT

CHICAGO AREA WEATHER ROUNDUP
NATIONAL WEATHER SERVICE CHICAGO/ROMEOVILLE IL
100 PM CDT SAT APR 30 2016

NOTE: "FAIR" INDICATES FEW OR NO CLOUDS BELOW 12,000 FEET WITH NO
SIGNIFICANT WEATHER AND/OR OBSTRUCTIONS TO VISIBILITY.

* THESE STATIONS ARE NOT UNDER NWS QUALITY CONTROL. THEY ALSO MAY NOT
  REPORT WEATHER SUCH AS PRECIPITATION OR FOG.

ILZ005-006-012>014-019>023-301900-
NORTHEAST ILLINOIS

CITY           SKY/WX    TMP DP  RH WIND       PRES   REMARKS
OHARE          LGT RAIN  45  41  86 E18       29.97F FOG
6HR MIN TEMP:  45; 6HR MAX TEMP:  48; 6HR PCP:  0.10;

MIDWAY         LGT RAIN  46  40  79 E24G30    29.96F
6HR MIN TEMP:  46; 6HR MAX TEMP:  50; 6HR PCP:  0.14;

AURORA         LGT RAIN  47  43  86 E20G26    29.94R FOG
6HR MIN TEMP:  47; 6HR MAX TEMP:  51; 6HR PCP:  0.15;

LANSING*       LGT RAIN  46  44  91 E13       29.96F
JOLIET*        LGT RAIN  48  46  93 E16       29.93S
WAUKEGAN       LGT RAIN  44  42  93 NE15G22   30.01F FOG
6HR MIN TEMP:  43; 6HR MAX TEMP:  45; 6HR PCP:  0.04;

DUPAGE AIRPORT LGT RAIN  45  40  82 E16G24    29.95F
6HR MIN TEMP:  45; 6HR MAX TEMP:  50; 6HR PCP:  0.11;

WHEELING       LGT RAIN  44  41  89 E8        30.00F FOG
6HR MIN TEMP:  44; 6HR MAX TEMP:  48; 6HR PCP:  0.08;

KANKAKEE*      RAIN      48  47  95 E18       29.91F
MORRIS*        RAIN      48  46  92 E15G22    29.90F
LEWIS AIRPORT* LGT RAIN  46  43  90 E16       29.94R
$$

WIZ051-052-058>065-066-070>072-301900-
SOUTHEAST WISCONSIN

CITY           SKY/WX    TMP DP  RH WIND       PRES   REMARKS
MILWAUKEE      CLOUDY    45  39  79 E17       30.05F
6HR MIN TEMP:  43; 6HR MAX TEMP:  46; 6HR PCP: TRACE;

KENOSHA*       LGT RAIN  45  40  82 E16       30.03F
RACINE*        LGT RAIN  45  39  79 E15       30.05F
BURLINGTON     RAIN      45  40  82 E14G20    30.02S
WAUKESHA       LGT RAIN  45  36  70 E15G22    30.05F FOG
WEST BEND      CLOUDY    48  34  57 E15G21    30.05F
$$

INZ001>003-010>013-019-020-301900-
NORTHWEST INDIANA

CITY           SKY/WX    TMP DP  RH WIND       PRES   REMARKS
GARY*          LGT RAIN  48  48 100 E12       29.98F
MICHIGAN CITY* NOT AVBL
RENSSELAER*    NOT AVBL
VALPARAISO     LGT RAIN  46  43  89 E15       29.98F FOG
$$

LMZ740>746-301900-
SOUTHERN LAKE MICHIGAN

STATION/POSITION TIME  SKY/WX   TEMP WIND        PRES    VSBY
                                AIR  DIR/SP/G
                 (UTC)          (F)  (DEG/KT/KT) (MB)    (MI)
HARRISON CRIB    1700            44   80/ 15/ 18   N/A
BURNHAM HARBOR   1800            44   80/  9/ 15   N/A
CALUMET HARBOR   1700            45   60/ 17/ 19 1015.6F
BURNS HARBOR     1705            46   90/ 12/ 18 1016.6F
MICHIGAN CITY    1700            45   60/ 12/ 16   N/A
$$

ABBREVIATIONS USED IN REMARKS
   TC - TEMPERATURE IN CELSIUS
  WCI - WIND CHILL INDEX
   HX - HEAT INDEX
  VSB - VISIBILITY
$$




USA.gov is the U.S. government's official web portal to all federal, state and local government web resources and services.